WORLDVIEW 2 DEB, 41742

Orbit data source: Space-Track

WORLDVIEW 2 DEB, 41742 is space debris in SSO originally from a launch on Thu, 08 Oct 2009 UTC launched from the Air Force Western Test Range (AFWTR). Debris objects in space refer to the collection of defunct objects orbiting the Earth. Examples of debris include non-operational satellites, rocket bodies, and fragments generated from explosions, collisions, or faulty payload assembly.

Loading next visibility...
Identifier
41742, 2009-055K
Orbit
SSO
Last TLE update
3 hours ago
Origin
Manufacturer
Ball
Mission
Spacecraft
Bus & Motor
Unknown
Mass
Unknown
Launch date (UTC)
2009-10-08 (16 years ago)
Launch vehicle
Unknown
Launch site
Air Force Western Test Range (AFWTR)
Object type
Payload
Rocket body
Debris
Shape & HBR
Unknown
Radar Cross Section
Small (<0.1 m²)

Expand to show TLE details & history

TLE from 3 hours ago
0 WORLDVIEW 2 DEB
1 41742U 09055K   25190.21089508  .00001861  00000-0  44320-3 0  9999
2 41742  98.3629 278.5411 0008988 174.4270 185.7028 14.54950682472179
Epoch: 2025-07-09T05:03Z
TLE epoch observation values (Epoch: 2025-07-09T05:03:41.334Z)
Latitude
-0.00009°
Longitude
-84.7759°
Altitude
718.838 km
Speed
7.493 km/s
True Right ascension
18h 34m 09s
True Declination
0° 00' 00"
Sunlit
Object was in full shadow at epoch
Visualization orbit readout
Latitude
-78.87777°
Longitude
-36.60148°
Altitude
738.91 km
Speed
7.484 km/s
Apparent Right ascension
07h 32m 52s
Apparent Declination
-71° 30' 04"
Sunlit
Object is in full shadow
Visualization observer readout
Local Sidereal Time
20:08:34
Azimuth
174.657° S
Elevation
-58.094°
Doppler factor
1
Orbital elements
Apogee altitude
712.988 km
Perigee altitude
700.253 km
Semi-major axis
7,084.757 km
Eccentricity
0.0009
Inclination
98.3629°
RAAN
278.5411°
Arg. of periapsis
174.427°
True anomaly
Unknown
Mean anomaly
185.7028°
Eccentric anomaly
Unknown
Mean motion
3.63962 °/min
Orbital period
98.91 mins
BSTAR
0.0004432
Loading maneuver chart data...
Loading SW <> Apogee altitude chart data...

WORLDVIEW 2 DEB Visibility forecast

Observer location: undefined°, undefined°

Span
Click to sort rows by Start time (UTC) header in descending order
Start Az.
Max El. time (UTC)
Max El. Az.
Max El.
End time (UTC)
End Az.
9 mins2025-07-09 18:49:59.032Z12.581° NNE2025-07-09 18:53:59.032Z4.475° NNE44.422°2025-07-09 18:58:59.032Z195.29° SSW
8 mins2025-07-10 05:56:59.032Z169.133° S2025-07-10 05:59:59.032Z202.927° SW44.535°2025-07-10 06:04:59.032Z345.544° N
|